Regional Weather Roundup
Issued by NWS

Home | Current Version | Previous Version | Text Only | Print | Product List | Glossary Off
Versions: 1 2 3 4 5 6 7 8 9 10 11 12 13 14 15 16 17 18 19 20 21 22 23 24 25 26 27 28 29 30 31 32 33 34 35 36 37 38 39 40 41 42 43 44 45 46 47 48 49 50

000
ASUS43 KMKX 060700
RWRWI

WISCONSIN REGIONAL WEATHER ROUNDUP
NATIONAL WEATHER SERVICE MILWAUKEE/SULLIVAN WI
100 AM CST SAT FEB 06 2016

NOTE: "FAIR" INDICATES FEW OR NO CLOUDS BELOW 12,000 FEET WITH NO
SIGNIFICANT WEATHER AND/OR OBSTRUCTIONS TO VISIBILITY.

WIZ001-002-006>008-014>016-023>028-060800-
NORTHWEST WISCONSIN

CITY           SKY/WX    TMP DP  RH WIND       PRES   REMARKS
SUPERIOR ARPT  CLOUDY    24  17  74 SW10      30.10F WCI  13
ASHLAND        CLOUDY    24  17  74 SW10      30.10F WCI  14
HAYWARD        CLOUDY    22  17  81 SW8       30.10F WCI  12
SIREN          CLOUDY    25  21  85 SW6       30.13S WCI  18
CUMBERLAND     CLOUDY    23  19  86 SW8       30.12S FOG     WCI  14
RICE LAKE      CLOUDY    24  20  87 SW6       30.15S WCI  16
CHETEK         CLOUDY    23  20  88 SW7       30.14F WCI  15
LADYSMITH      CLOUDY    22  18  82 SW9       30.14F WCI  12
EAU CLAIRE     NOT AVBL
MENOMONIE      CLOUDY    25  19  80 S6        30.17F WCI  18
NEW RICHMOND   CLOUDY    25  21  86 SW9       30.15S WCI  15
OSCEOLA        CLOUDY    25  22  87 SW7       30.18S WCI  18
$$

WIZ003>005-009-010-017-018-060800-
NORTH CENTRAL WISCONSIN

CITY           SKY/WX    TMP DP  RH WIND       PRES   REMARKS
MANITOWISH WTR CLOUDY    19  16  86 SW8       30.06F WCI   9
ARBOR VITAE    FLURRIES  22  17  83 W9        30.07F WCI  11
WOODRUFF       FLURRIES  22  17  83 W9        30.07F WCI  11
RHINELANDER    FLURRIES  20  15  81 SW13      30.08F WCI   7
EAGLE RIVER    FLURRIES  20  15  79 SW9       30.06F WCI  10
LAND O LAKES   CLOUDY    21  17  83 SW3       30.05F
PHILLIPS       CLOUDY    20  17  86 SW9       30.09F WCI   9
TOMAHAWK       FLURRIES  20  15  79 SW3       30.11F
MEDFORD        FLURRIES  20  16  83 SW9       30.12F WCI  10
MERRILL        FLURRIES  21  17  82 SW8       30.13F WCI  12
$$

WIZ029-030-035-036-043>047-060800-
CENTRAL WISCONSIN

CITY           SKY/WX    TMP DP  RH WIND       PRES   REMARKS
WAUSAU         FLURRIES  23  16  74 SW7       30.13F WCI  15
MOSINEE        FLURRIES  21  18  86 SW12      30.16F WCI   9
MARSHFIELD     LGT SNOW  23  15  71 SW13      30.14F WCI  11
STEVENS POINT  FLURRIES  22  16  77 SW9       30.18F WCI  12
WAUPACA        CLOUDY    27  18  70 SW8       30.21F WCI  18
WAUTOMA        NOT AVBL
WISC RAPIDS    CLOUDY    22  16  78 SW8       30.19F WCI  12
CAMP DOUGLAS   MIX PCPN  25  23  93 SW9       30.20F WCI  15
$$

WIZ011>013-019>022-031-037>040-048>050-060800-
NORTHEAST WISCONSIN

CITY           SKY/WX    TMP DP  RH WIND       PRES   REMARKS
ANTIGO         FLURRIES  20  15  82 SW14      30.12F WCI   7
SHAWANO        CLOUDY    26  18  73 SW8       30.18F WCI  17
OCONTO         CLOUDY    23  18  80 SW7       30.18F WCI  15
STURGEON BAY   CLOUDY    25  16  68 SW14      30.19F WCI  13
GREEN BAY      CLOUDY    24  17  74 SW7       30.20F WCI  16
MANITOWOC      NOT AVBL
APPLETON       CLOUDY    25  18  74 SW13      30.19F WCI  13
CLINTONVILLE   CLOUDY    25  18  74 SW6       30.20F WCI  18
OSHKOSH        CLOUDY    24  16  71 SW7       30.21F WCI  16
$$

WIZ032>034-041-042-053>061-060800-
SOUTHWEST WISCONSIN

CITY           SKY/WX    TMP DP  RH WIND       PRES   REMARKS
LA CROSSE      CLOUDY    26  19  74 S7        30.22F WCI  18
SPARTA         CLOUDY    25  20  82 SW5       30.22F WCI  19
VIROQUA        CLOUDY    24  20  86 SW13      30.20F WCI  12
BOSCOBEL       CLOUDY    27  22  81 SW5       30.25F WCI  22
PRAIRIE DU CHI CLOUDY    28  19  71 S5        30.26F WCI  22
PLATTEVILLE    CLOUDY    27  24  87 S8        30.26S WCI  19
$$

WIZ056-057-062-063-064-067-068-060800-
SOUTH CENTRAL WISCONSIN

CITY           SKY/WX    TMP DP  RH WIND       PRES   REMARKS
REEDSBURG      CLOUDY    25  19  79 SW9       30.23F WCI  16
BARABOO/DELLS  CLOUDY    25  19  76 SW8       30.23F WCI  16
LONE ROCK      NOT AVBL
MINERAL POINT  CLOUDY    28  25  86 S6        30.24F WCI  22
MADISON        CLOUDY    27  19  72 VRB6      30.25F WCI  20
MIDDLETON      CLOUDY    28  22  75 SW7       30.25F WCI  21
WATERTOWN      CLOUDY    27  22  84 SW8       30.25S WCI  18
MONROE         CLOUDY    28  25  86 SW8       30.25S WCI  20
JANESVILLE     PTCLDY    28  25  86 SW6       30.27F WCI  22
$$

WIZ051-052-058>065-066-070>072-060800-
SOUTHEAST WISCONSIN

CITY           SKY/WX    TMP DP  RH WIND       PRES   REMARKS
MILWAUKEE      CLOUDY    28  20  71 SW9       30.26F WCI  19
WAUKESHA       MOCLDY    27  19  74 SW7       30.26F WCI  19
MILWAUKEE/TIMM CLOUDY    28  19  69 SW7       30.26F WCI  21
RACINE         CLOUDY    28  20  71 W7        30.28F WCI  21
BURLINGTON     CLEAR     26  20  80 S7        30.26F WCI  18
KENOSHA        CLOUDY    28  21  75 SW10      30.26F WCI  19
FOND DU LAC    CLOUDY    25  18  74 SW7       30.23F WCI  17
SHEBOYGAN      CLOUDY    27  18  69 SW14      30.22F WCI  16
WEST BEND      CLOUDY    28  19  69 SW8       30.24S WCI  20
JUNEAU         CLOUDY    25  19  80 SW6       30.25S WCI  18
$$

LSZ147-162-060800-
LAKE SUPERIOR

STATION/POSITION TIME  TEMP    WIND        PRES    WAVE
                       AIR SEA DIR/SP/G            HT/PER
                 (UTC) (F)     (DEG/KT/KT) (MB)    (FT/S)
DEVILS ISLAND    0600   28     240/ 20/ 25 1019.1F
SAXON HARBOR     0640   25                 1018.6F
$$

LMZ867-665-643>646-060800-
LAKE MICHIGAN

STATION/POSITION TIME  TEMP    WIND        PRES    WAVE
                       AIR SEA DIR/SP/G            HT/PER
                 (UTC) (F)     (DEG/KT/KT) (MB)    (FT/S)
CHAMBERS ISLAND  0600   23     190/  6/ 12 1021.7F
ALGOMA LAKESHORE 0511          270/  7/  9   N/A
KEWAUNEE LAKESHO 0600   26     280/  9/ 14 1022.3F
SHEBOYGAN LAKESH 0600   27     250/  9/ 11 1025.1F
PORT WASHINGTON  0600   28     260/  7/ 12 1025.1F
MILWAUKEE LAKESH 0610   29     240/ 13/ 15   N/A
KENOSHA   LAKESH 0600   29     250/ 10/ 13 1025.7S
$$

TC  - TEMPERATURE IN CELSIUS
VSB - VISIBILITY IN STATUTE MILES
WCI - WIND CHILL INDEX
HX  - HEAT INDEX




USA.gov is the U.S. government's official web portal to all federal, state and local government web resources and services.